FW4606 Weather Reports


time (UTC)temp
C
wind
direction
speed
KPH
gust
KPH
rain 1hr
cm
rain 24hr
cm
rain mn
cm
humidity
%
barometer
mb
20260903005423 26 5 0.0 0.0 0.00 0.00 0.00 65 1011.0
20260903005156 27 5 0.0 0.0 0.00 0.00 0.00 64 1010.9
20260903004425 27 5 0.0 0.0 0.00 0.00 0.00 64 1011.0
20260903003924 27 5 0.0 1.6 0.00 0.00 0.00 63 1011.0
20260903003425 27 5 0.0 1.6 0.00 0.00 0.00 63 1011.1
20260903002924 27 5 0.0 3.2 0.00 0.00 0.00 62 1011.0
20260903002656 27 5 0.0 3.2 0.00 0.00 0.00 62 1011.0
20260903001924 27 343 0.0 1.6 0.00 0.00 0.00 61 1011.0
20260903001422 28 345 0.0 1.6 0.00 0.00 0.00 61 1011.0
20260903000922 28 46 0.0 1.6 0.00 0.00 0.00 60 1011.0
20260903000421 28 49 0.0 1.6 0.00 0.00 0.00 60 1010.9
20260903000152 28 49 0.0 1.6 0.00 0.00 0.00 59 1010.9
20260902235654 28 59 0.0 3.2 0.00 0.00 0.00 59 1011.0
20260902235149 28 328 0.0 3.2 0.00 0.00 0.00 58 1010.9
20260902234649 29 20 0.0 3.2 0.00 0.00 0.00 57 1010.9
20260902233917 29 349 0.0 1.6 0.00 0.00 0.00 56 1011.0
20260902233418 29 131 0.0 1.6 0.00 0.00 0.00 55 1011.0
20260902232919 30 356 0.0 1.6 0.00 0.00 0.00 54 1011.0
20260902232417 30 348 0.0 4.8 0.00 0.00 0.00 53 1011.0
20260902231917 30 356 0.0 4.8 0.00 0.00 0.00 51 1011.0
20260902231648 31 70 0.0 4.8 0.00 0.00 0.00 51 1011.0
20260902230919 31 338 0.0 4.8 0.00 0.00 0.00 50 1011.1
20260902230415 31 113 0.0 4.8 0.00 0.00 0.00 51 1011.1
20260902225915 31 89 0.0 4.8 0.00 0.00 0.00 51 1011.1
20260902225414 31 12 0.0 4.8 0.00 0.00 0.00 50 1011.1
20260902224915 31 350 0.0 4.8 0.00 0.00 0.00 52 1011.1
20260902224415 31 350 0.0 4.8 0.00 0.00 0.00 49 1011.1
20260902223914 31 23 0.0 4.8 0.00 0.00 0.00 49 1011.1
20260902223415 31 100 0.0 4.8 0.00 0.00 0.00 50 1011.1
20260902223149 31 103 0.0 4.8 0.00 0.00 0.00 49 1011.1
20260902222415 31 141 0.0 4.8 0.00 0.00 0.00 50 1011.1
20260902221910 31 76 0.0 3.2 0.00 0.00 0.00 51 1011.2
20260902221409 31 76 0.0 4.8 0.00 0.00 0.00 50 1011.2
20260902221144 31 315 0.0 6.4 0.00 0.00 0.00 49 1011.2
20260902220411 31 77 0.0 6.4 0.00 0.00 0.00 50 1011.2
20260902215910 31 322 0.0 4.8 0.00 0.00 0.00 50 1011.2
20260902215409 31 82 0.0 4.8 0.00 0.00 0.00 52 1011.3
20260902214910 31 83 0.0 4.8 0.00 0.00 0.00 52 1011.3
20260902214409 31 119 0.0 4.8 0.00 0.00 0.00 53 1011.3
20260902213910 31 346 0.0 4.8 0.00 0.00 0.00 51 1011.3
20260902213409 31 354 0.0 4.8 0.00 0.00 0.00 50 1011.3
20260902213142 31 22 0.0 6.4 0.00 0.00 0.00 54 1011.3
20260902212642 31 91 0.0 6.4 0.00 0.00 0.00 55 1011.3
20260902212531 31 349 0.0 3.2 0.00 0.00 0.00 52 1011.3
20260902211410 31 349 0.0 3.2 0.00 0.00 0.00 53 1011.3
20260902210911 30 356 1.6 3.2 0.00 0.00 0.00 55 1011.4
20260902210409 30 356 1.6 4.8 0.00 0.00 0.00 54 1011.3
20260902210141 30 345 0.0 4.8 0.00 0.00 0.00 54 1011.3
20260902205409 31 333 0.0 4.8 0.00 0.00 0.00 54 1011.3
20260902205143 30 350 1.6 9.7 0.00 0.00 0.00 54 1011.4
20260902204411 30 76 1.6 9.7 0.00 0.00 0.00 54 1011.5
20260902203909 30 347 0.0 4.8 0.00 0.00 0.00 55 1011.5
20260902203409 31 328 0.0 4.8 0.00 0.00 0.00 56 1011.6
20260902202909 31 257 1.6 9.7 0.00 0.00 0.00 55 1011.6
20260902202411 31 152 1.6 9.7 0.00 0.00 0.00 53 1011.6
20260902201909 31 118 0.0 3.2 0.00 0.00 0.00 54 1011.5
20260902201411 31 93 0.0 3.2 0.00 0.00 0.00 52 1011.5
20260902200914 31 49 0.0 3.2 0.00 0.00 0.00 55 1011.6
20260902200411 30 126 0.0 6.4 0.00 0.00 0.00 55 1011.7
20260902195910 30 108 0.0 6.4 0.00 0.00 0.00 51 1011.7
20260902195640 30 257 0.0 3.2 0.00 0.00 0.00 51 1011.8
20260902194907 30 204 0.0 6.4 0.00 0.00 0.00 54 1011.9
20260902194638 30 333 1.6 6.4 0.00 0.00 0.00 54 1011.8
20260902194526 30 87 1.6 4.8 0.00 0.00 0.00 53 1011.9
20260902193406 30 214 1.6 4.8 0.00 0.00 0.00 53 1011.9
20260902192901 30 75 1.6 4.8 0.00 0.00 0.00 55 1011.9
20260902192633 30 218 1.6 6.4 0.00 0.00 0.00 53 1012.0
20260902191903 29 113 0.0 6.4 0.00 0.00 0.00 55 1012.1
20260902191401 29 15 0.0 3.2 0.00 0.00 0.00 57 1012.1
20260902190901 29 349 0.0 3.2 0.00 0.00 0.00 57 1012.3
20260902190403 29 82 0.0 4.8 0.00 0.00 0.00 54 1012.3
20260902185901 30 347 0.0 4.8 0.00 0.00 0.00 53 1012.3
20260902185357 30 117 1.6 6.4 0.00 0.00 0.00 54 1012.3
20260902184858 29 356 1.6 6.4 0.00 0.00 0.00 54 1012.2
20260902184350 29 88 1.6 8.0 0.00 0.00 0.00 55 1012.4
20260902183845 29 153 1.6 8.0 0.00 0.00 0.00 57 1012.4
20260902183344 29 215 1.6 4.8 0.00 0.00 0.00 57 1012.5
20260902183115 29 359 0.0 4.8 0.00 0.00 0.00 59 1012.6
20260902182341 28 324 0.0 4.8 0.00 0.00 0.00 57 1012.7
20260902181842 28 120 1.6 4.8 0.00 0.00 0.00 55 1012.8
20260902181341 29 335 1.6 9.7 0.00 0.00 0.00 56 1012.8
20260902181109 28 152 1.6 9.7 0.00 0.00 0.00 55 1012.8
20260902180610 28 240 1.6 8.0 0.00 0.00 0.00 58 1012.8
20260902180503 28 131 1.6 9.7 0.00 0.00 0.00 58 1012.8
20260902175337 29 89 1.6 9.7 0.00 0.00 0.00 57 1012.8
20260902174834 29 331 0.0 1.6 0.00 0.00 0.00 60 1012.7
20260902174334 28 56 0.0 1.6 0.00 0.00 0.00 60 1012.8
20260902174103 28 6 0.0 6.4 0.00 0.00 0.00 58 1012.9
20260902173604 28 12 0.0 6.4 0.00 0.00 0.00 60 1013.1
20260902172832 28 36 0.0 4.8 0.00 0.00 0.00 61 1013.2
20260902172332 28 204 0.0 4.8 0.00 0.00 0.00 60 1013.4
20260902172106 27 329 1.6 4.8 0.00 0.00 0.00 59 1013.4
20260902171328 28 104 0.0 4.8 0.00 0.00 0.00 58 1013.1
20260902170826 28 304 0.0 3.2 0.00 0.00 0.00 61 1013.1
20260902170818 27 335 0.0 4.8 0.00 0.00 0.00 62 1013.4
20260902165811 27 16 0.0 6.4 0.00 0.00 0.00 61 1013.4
20260902165309 27 335 1.6 6.4 0.00 0.00 0.00 63 1013.2
20260902164803 27 345 0.0 4.8 0.00 0.00 0.00 63 1013.1
20260902164537 27 108 0.0 8.0 0.00 0.00 0.00 65 1013.2
20260902163802 27 75 0.0 8.0 0.00 0.00 0.00 64 1013.2
20260902163259 27 95 0.0 6.4 0.00 0.00 0.00 65 1013.2
20260902162759 26 93 0.0 4.8 0.00 0.00 0.00 65 1013.4
20260902162257 26 109 0.0 4.8 0.00 0.00 0.00 68 1013.4
20260902162029 26 222 0.0 3.2 0.00 0.00 0.00 67 1013.6
20260902161258 26 58 0.0 1.6 0.00 0.00 0.00 68 1013.6
20260902160755 26 57 0.0 1.6 0.00 0.00 0.00 68 1013.4
20260902160254 26 108 0.0 1.6 0.00 0.00 0.00 69 1013.1
20260902155753 25 71 0.0 0.0 0.00 0.00 0.00 69 1013.1
20260902155252 25 60 0.0 1.6 0.00 0.00 0.00 70 1013.0
20260902154752 25 15 0.0 1.6 0.00 0.00 0.00 72 1013.0
20260902154250 25 17 0.0 1.6 0.00 0.00 0.00 71 1013.0
20260902153749 25 117 0.0 1.6 0.00 0.00 0.00 72 1013.0
20260902153250 25 142 0.0 0.0 0.00 0.00 0.00 73 1013.0
20260902152750 24 146 0.0 3.2 0.00 0.00 0.00 73 1013.0
20260902152516 24 203 0.0 4.8 0.00 0.00 0.00 72 1013.1
20260902151737 24 153 0.0 4.8 0.00 0.00 0.00 73 1013.1
20260902151503 24 239 0.0 4.8 0.00 0.00 0.00 76 1013.1
20260902150725 23 267 0.0 4.8 0.00 0.00 0.00 76 1013.1
20260902150219 23 228 0.0 1.6 0.00 0.00 0.00 75 1013.2
20260902145713 23 134 0.0 1.6 0.00 0.00 0.00 77 1013.4
20260902145208 23 233 0.0 1.6 0.00 0.00 0.00 77 1013.0
20260902144702 23 184 0.0 0.0 0.00 0.00 0.00 78 1012.7
20260902144156 22 136 0.0 1.6 0.00 0.00 0.00 80 1012.8
20260902143650 22 110 0.0 1.6 0.00 0.00 0.00 81 1012.9
20260902143415 21 156 0.0 1.6 0.00 0.00 0.00 83 1013.0
20260902142640 21 156 0.0 1.6 0.00 0.00 0.00 83 1013.2
20260902142132 21 120 0.0 1.6 0.00 0.00 0.00 84 1013.4
20260902141626 21 186 0.0 1.6 0.00 0.00 0.00 85 1013.4
20260902141120 21 352 0.0 1.6 0.00 0.00 0.00 85 1013.4
20260902140847 20 352 0.0 1.6 0.00 0.00 0.00 85 1013.5
20260902140108 20 352 0.0 1.6 0.00 0.00 0.00 85 1013.4
20260902135602 20 158 0.0 1.6 0.00 0.00 0.00 86 1013.5
20260902135056 20 145 0.0 1.6 0.00 0.00 0.00 86 1013.4
20260902134549 20 169 0.0 1.6 0.00 0.00 0.00 86 1013.4
20260902134044 20 169 0.0 3.2 0.00 0.00 0.00 86 1013.2
20260902133538 20 246 0.0 3.2 0.00 0.00 0.00 86 1013.2
20260902133032 20 242 0.0 3.2 0.00 0.00 0.00 86 1013.5
20260902132526 20 197 0.0 3.2 0.00 0.00 0.00 87 1013.4
20260902132251 20 169 0.0 3.2 0.00 0.00 0.00 87 1013.4
20260902131514 20 160 0.0 1.6 0.00 0.00 0.00 87 1013.4
20260902131009 20 120 0.0 1.6 0.00 0.00 0.00 88 1013.5
20260902131004 20 120 0.0 1.6 0.00 0.00 0.00 88 1013.5
20260902125956 19 120 0.0 1.6 0.00 0.00 0.00 89 1013.4
20260902125450 19 164 0.0 0.0 0.00 0.00 0.00 90 1013.5
20260902125215 19 163 0.0 0.0 0.00 0.00 0.00 90 1013.5
20260902124438 19 164 0.0 0.0 0.00 0.00 0.00 90 1013.5
20260902124202 19 164 0.0 0.0 0.00 0.00 0.00 90 1013.6
20260902123425 19 163 0.0 0.0 0.00 0.00 0.00 90 1013.8
20260902122920 19 163 0.0 0.0 0.00 0.00 0.00 90 1013.6
20260902122413 19 163 0.0 0.0 0.00 0.00 0.00 90 1013.4
20260902121908 19 164 0.0 0.0 0.00 0.00 0.00 90 1013.5
20260902121402 18 164 0.0 0.0 0.00 0.00 0.00 90 1013.4
20260902120856 19 163 0.0 0.0 0.00 0.00 0.00 90 1013.5
20260902120350 19 163 0.0 0.0 0.00 0.00 0.00 90 1013.5
20260902115844 18 163 0.0 0.0 0.00 0.00 0.00 90 1013.6
20260902115338 18 163 0.0 0.0 0.00 0.00 0.00 90 1013.9
20260902114832 18 163 0.0 0.0 0.00 0.00 0.00 90 1013.8
20260902114326 18 163 0.0 0.0 0.00 0.00 0.00 90 1014.0
20260902113820 18 164 0.0 0.0 0.00 0.00 0.00 90 1013.9
20260902113313 18 163 0.0 0.0 0.00 0.00 0.00 90 1013.7
20260902112808 18 164 0.0 0.0 0.00 0.00 0.00 90 1013.7
20260902112305 19 163 0.0 0.0 0.00 0.00 0.00 90 1013.6
20260902111756 19 163 0.0 0.0 0.00 0.00 0.00 90 1013.5
20260902111249 19 163 0.0 0.0 0.00 0.00 0.00 90 1013.7
20260902111015 19 163 0.0 0.0 0.00 0.00 0.00 90 1013.6
20260902110238 19 163 0.0 0.0 0.00 0.00 0.00 90 1013.5
20260902110006 18 163 0.0 0.0 0.00 0.00 0.00 90 1013.5
20260902105226 18 164 0.0 0.0 0.00 0.00 0.00 90 1013.6
20260902104719 18 163 0.0 0.0 0.00 0.00 0.00 90 1013.6
20260902104214 18 163 0.0 0.0 0.00 0.00 0.00 90 1013.6
20260902103708 18 164 0.0 1.6 0.00 0.00 0.00 91 1013.8
20260902103202 18 164 0.0 1.6 0.00 0.00 0.00 91 1013.7
20260902102655 18 163 0.0 0.0 0.00 0.00 0.00 91 1013.6
20260902102150 18 163 0.0 0.0 0.00 0.00 0.00 91 1013.7
20260902101644 18 163 0.0 1.6 0.00 0.00 0.00 90 1013.6
20260902101137 18 163 0.0 1.6 0.00 0.00 0.00 90 1013.5
20260902100632 19 312 0.0 0.0 0.00 0.00 0.00 90 1012.9
20260902100358 19 314 0.0 0.0 0.00 0.00 0.00 90 1012.8
20260902095622 19 314 0.0 0.0 0.00 0.00 0.00 90 1012.7
20260902095344 19 313 0.0 0.0 0.00 0.00 0.00 89 1012.6
20260902094607 19 314 0.0 0.0 0.00 0.00 0.00 89 1012.6
20260902094102 19 314 0.0 0.0 0.00 0.00 0.00 89 1012.3
20260902093556 20 314 0.0 0.0 0.00 0.00 0.00 88 1012.2
20260902092544 20 314 0.0 0.0 0.00 0.00 0.00 88 1011.9
20260902092037 20 314 0.0 1.6 0.00 0.00 0.00 88 1012.2
20260902091532 20 314 0.0 1.6 0.00 0.00 0.00 88 1012.2
20260902091026 19 314 0.0 1.6 0.00 0.00 0.00 89 1012.3
20260902090750 19 310 0.0 1.6 0.00 0.00 0.00 89 1012.4
20260902090014 19 310 0.0 1.6 0.00 0.00 0.00 89 1012.2
20260902085508 19 311 0.0 1.6 0.00 0.00 0.00 90 1012.3
20260902085234 19 239 0.0 0.0 0.00 0.00 0.00 90 1012.7
20260902084957 19 239 0.0 0.0 0.00 0.00 0.00 90 1012.9
20260902083950 19 239 0.0 0.0 0.00 0.00 0.00 90 1012.8
20260902083443 19 239 0.0 0.0 0.00 0.00 0.00 90 1012.8
20260902082937 19 239 0.0 0.0 0.00 0.00 0.00 90 1012.8
20260902082432 19 239 0.0 0.0 0.00 0.00 0.00 89 1012.8
20260902082156 19 239 0.0 0.0 0.00 0.00 0.00 89 1013.0
20260902081420 19 239 0.0 0.0 0.00 0.00 0.00 89 1013.2
20260902080914 19 239 0.0 0.0 0.00 0.00 0.00 89 1013.2
20260902080411 19 239 0.0 0.0 0.00 0.00 0.00 89 1013.1
20260902080405 19 239 0.0 0.0 0.00 0.00 0.00 89 1013.0
20260902075627 19 239 0.0 1.6 0.00 0.00 0.00 89 1012.8
20260902075120 19 239 0.0 1.6 0.00 0.00 0.00 89 1013.2
20260902074344 19 152 0.0 0.0 0.00 0.00 0.00 90 1013.2
20260902073838 19 152 0.0 0.0 0.00 0.00 0.00 89 1013.2
20260902073332 19 162 0.0 0.0 0.00 0.00 0.00 89 1013.1
20260902072826 19 162 0.0 0.0 0.00 0.00 0.00 89 1013.1
20260902072320 20 163 0.0 0.0 0.00 0.00 0.00 88 1013.4
20260902071813 20 144 0.0 0.0 0.00 0.00 0.00 88 1013.4
20260902071538 20 144 0.0 1.6 0.00 0.00 0.00 88 1013.5
20260902070802 20 144 0.0 1.6 0.00 0.00 0.00 88 1013.6
20260902070527 20 143 0.0 0.0 0.00 0.00 0.00 88 1013.7
20260902070021 20 144 0.0 0.0 0.00 0.00 0.00 87 1013.8
20260902065245 19 143 0.0 0.0 0.00 0.00 0.00 87 1013.9
20260902064738 19 144 0.0 0.0 0.00 0.00 0.00 87 1014.0
20260902064231 19 144 0.0 0.0 0.00 0.00 0.00 87 1014.2
20260902063726 19 144 0.0 0.0 0.00 0.00 0.00 88 1014.1
20260902063219 18 144 0.0 0.0 0.00 0.00 0.00 88 1014.0
20260902062713 18 144 0.0 0.0 0.00 0.00 0.00 88 1014.0
20260902062207 18 143 0.0 0.0 0.00 0.00 0.00 87 1013.8
20260902061702 19 144 0.0 0.0 0.00 0.00 0.00 87 1013.6
20260902061156 19 144 0.0 0.0 0.00 0.00 0.00 86 1013.2
20260902060650 19 144 0.0 0.0 0.00 0.00 0.00 86 1012.9
20260902060143 19 143 0.0 0.0 0.00 0.00 0.00 85 1012.6
20260902055915 19 143 0.0 0.0 0.00 0.00 0.00 86 1012.7
20260902055141 19 143 0.0 0.0 0.00 0.00 0.00 86 1012.9
20260902054640 19 144 0.0 0.0 0.00 0.00 0.00 86 1013.2
20260902054140 19 144 0.0 0.0 0.00 0.00 0.00 86 1013.5
20260902053910 19 144 0.0 0.0 0.00 0.00 0.00 87 1013.5
20260902053138 19 143 0.0 0.0 0.00 0.00 0.00 86 1013.7
20260902052636 19 143 0.0 0.0 0.00 0.00 0.00 87 1013.7
20260902052132 19 144 0.0 0.0 0.00 0.00 0.00 87 1013.9
20260902051635 19 144 0.0 0.0 0.00 0.00 0.00 86 1014.0
20260902051134 19 144 0.0 0.0 0.00 0.00 0.00 86 1014.0
20260902050631 19 144 0.0 0.0 0.00 0.00 0.00 86 1013.9
20260902050130 19 144 0.0 0.0 0.00 0.00 0.00 86 1013.8
20260902045627 19 143 0.0 0.0 0.00 0.00 0.00 85 1013.7
20260902045125 19 143 0.0 0.0 0.00 0.00 0.00 85 1013.5
20260902044624 19 144 0.0 0.0 0.00 0.00 0.00 86 1013.2
20260902044125 19 144 0.0 0.0 0.00 0.00 0.00 87 1013.4
20260902043623 19 143 0.0 0.0 0.00 0.00 0.00 87 1013.5
20260902043119 19 143 0.0 0.0 0.00 0.00 0.00 87 1013.4
20260902042615 19 143 0.0 0.0 0.00 0.00 0.00 86 1013.2
20260902042121 19 143 0.0 0.0 0.00 0.00 0.00 85 1012.8
20260902042117 19 144 0.0 0.0 0.00 0.00 0.00 86 1013.0
20260902041115 20 144 0.0 0.0 0.00 0.00 0.00 84 1012.8
20260902040614 20 143 0.0 0.0 0.00 0.00 0.00 84 1013.1
20260902040113 20 143 0.0 0.0 0.00 0.00 0.00 84 1013.2
20260902035614 20 144 0.0 0.0 0.00 0.00 0.00 85 1013.2
20260902035114 20 143 0.0 0.0 0.00 0.00 0.00 85 1013.4
20260902034615 20 144 0.0 0.0 0.00 0.00 0.00 84 1013.2
20260902034110 20 144 0.0 0.0 0.00 0.00 0.00 83 1013.4
20260902033609 20 144 0.0 0.0 0.00 0.00 0.00 83 1013.5
20260902033109 20 143 0.0 0.0 0.00 0.00 0.00 83 1013.8
20260902032611 20 143 0.0 0.0 0.00 0.00 0.00 83 1013.9
20260902032110 20 144 0.0 0.0 0.00 0.00 0.00 84 1014.0
20260902031610 20 143 0.0 0.0 0.00 0.00 0.00 82 1013.9
20260902031109 20 143 0.0 0.0 0.00 0.00 0.00 82 1013.8
20260902030609 20 144 0.0 0.0 0.00 0.00 0.00 81 1013.6
20260902030342 20 144 0.0 0.0 0.00 0.00 0.00 81 1013.7
20260902025836 20 144 0.0 0.0 0.00 0.00 0.00 79 1013.7
20260902025107 20 144 0.0 0.0 0.00 0.00 0.00 79 1013.6
20260902024606 21 144 0.0 0.0 0.00 0.00 0.00 78 1013.5
20260902024106 21 144 0.0 0.0 0.00 0.00 0.00 78 1013.2
20260902023606 21 143 0.0 0.0 0.00 0.00 0.00 77 1013.4
20260902023336 21 144 0.0 0.0 0.00 0.00 0.00 75 1013.4
20260902022605 21 144 0.0 0.0 0.00 0.00 0.00 75 1013.5
20260902022105 21 143 0.0 0.0 0.00 0.00 0.00 74 1013.5
20260902021606 21 143 0.0 0.0 0.00 0.00 0.00 74 1013.5
20260902021101 21 143 0.0 0.0 0.00 0.00 0.00 74 1013.5
20260902020833 22 144 0.0 0.0 0.00 0.00 0.00 73 1013.5
20260902015602 22 144 0.0 0.0 0.00 0.00 0.00 73 1013.2
20260902015335 22 143 0.0 0.0 0.00 0.00 0.00 71 1013.4
20260902014601 22 144 0.0 0.0 0.00 0.00 0.00 69 1013.2
20260902014102 23 144 0.0 0.0 0.00 0.00 0.00 69 1013.2
20260902013832 23 144 0.0 0.0 0.00 0.00 0.00 68 1013.2
20260902013103 23 144 0.0 0.0 0.00 0.00 0.00 67 1013.1
20260902012559 23 144 0.0 0.0 0.00 0.00 0.00 66 1013.0
20260902012329 23 144 0.0 0.0 0.00 0.00 0.00 66 1012.9
20260902011559 23 144 0.0 0.0 0.00 0.00 0.00 65 1012.9
20260902011059 24 144 0.0 0.0 0.00 0.00 0.00 67 1012.9
20260902010558 24 144 0.0 0.0 0.00 0.00 0.00 64 1012.7
20260902010101 24 144 0.0 0.0 0.00 0.00 0.00 63 1012.6